Regional Weather Roundup
Issued by NWS Cleveland, OH

Home | Current Version | Previous Version | Graphics & Text | Print | Product List | Glossary On
Versions: 1 2 3 4 5 6 7 8 9 10 11 12 13 14 15 16 17 18 19 20 21 22 23 24 25 26 27 28 29 30 31 32 33 34 35 36 37 38 39 40 41 42 43 44 45 46 47 48 49 50
000
ASUS41 KCLE 292310
RWRCLE
OHIO REGIONAL WEATHER ROUNDUP
NATIONAL WEATHER SERVICE WILMINGTON, OH
700 PM EDT TUE JUL 29 2014

NOTE: "FAIR" INDICATES FEW OR NO CLOUDS BELOW 12,000 FEET WITH NO
SIGNIFICANT WEATHER AND/OR OBSTRUCTIONS TO VISIBILITY.

OHZ001>008-015>018-024>027-034-035-043-044-300000-
   NORTHWEST OHIO

CITY           SKY/WX    TMP DP  RH WIND       PRES   REMARKS
DEFIANCE       PTSUNNY   66  59  78 S3        29.99F
FINDLAY        MOSUNNY   70  54  56 SW8       30.00S
TOLEDO EXPRESS PTSUNNY   71  55  56 SW8       29.98S
TOLEDO METCALF PTSUNNY   72  53  51 W12       29.99R
LIMA           MOSUNNY   71  55  56 W8        30.01F
$$

OHZ009>014-019>023-028>033-038-089-300000-
   NORTHEAST OHIO

CITY           SKY/WX    TMP DP  RH WIND       PRES   REMARKS
CLE-HOPKINS    PTSUNNY   68  51  54 W12       30.02R
CLE-LAKEFRONT  PTSUNNY   68  53  58 W7        29.98S
CUY CO. ARPT   PTSUNNY   68  54  60 NW12      30.01S
LORAIN-ELYRIA  MOSUNNY   71  54  54 W6        30.01S
ASHTABULA      MOSUNNY   64  51  62 NW7       30.02R
AKRON-CANTON   PTSUNNY   69  49  48 W9        30.02S
WOOSTER        SUNNY     67  51  56 W6        30.02F
MANSFIELD      CLOUDY    67  52  58 SW6       30.03S
YOUNGSTOWN     MOSUNNY   68  48  48 W5        30.01R
$$

OHZ042-051>053-060>062-070>072-077>081-300000-
  SOUTHWEST OHIO

CITY           SKY/WX    TMP DP  RH WIND       PRES   REMARKS
CINC-COVINGTON MOSUNNY   72  53  51 W6        30.05F
CINC-LUNKEN    PTSUNNY   72  53  51 VRB7      30.04F
HAMILTON       SUNNY     72  56  57 W5        30.05F
DAYTON         PTSUNNY   72  53  51 W10       30.04F
WRIGHT-PAT AFB MOSUNNY   70  55  59 SW7       30.03F
DAYTON GENERAL SUNNY     71  54  54 SW5       30.03F
WILMINGTON     SUNNY     70  51  51 W8        30.04F
$$

OHZ036-037-039>041-045>050-054>059-063>069-073>076-082>088-300000-
  CENTRAL AND SOUTHEAST OHIO

CITY           SKY/WX    TMP DP  RH WIND       PRES   REMARKS
COLUMBUS       MOSUNNY   71  50  47 NW7       30.03S
OSU AIRPORT    PTSUNNY   69  52  54 W6        30.03F
BOLTON FIELD   MOSUNNY   70  54  56 W3        30.04F
RICKENBACK AFB MOSUNNY   72  46  40 W8        30.03F
NEWARK         SUNNY     68  49  50 NW5       30.03F
MARION         PTSUNNY   69  53  56 W8        30.02F
LANCASTER      SUNNY     69  51  52 W5        30.04S
ZANESVILLE     SUNNY     68  49  50 NW6       30.04R
NEW PHILLY     SUNNY     67  51  56 SW5       30.03S
$$


USA.gov is the U.S. government's official web portal to all federal, state and local government web resources and services.